EN

Hourly Weather Kyslyn

Today, 4 August, Wednesday

Time Temperature Precipitation Wind Pressure Humidity
00:00 +18°C° 0 mm 2 mps 744 mmHg 67%
01:00 +18°C° 0 mm 2 mps 745 mmHg 69%
02:00 +18°C° 0 mm 1 mps 745 mmHg 72%
03:00 +18°C° 0 mm 1 mps 745 mmHg 72%
04:00 +16°C° 0 mm 1 mps 745 mmHg 73%
05:00 +16°C° 0 mm 1 mps 745 mmHg 74%
06:00 +17°C° 0 mm 0 mps 745 mmHg 69%
07:00 +19°C° 0 mm 0 mps 745 mmHg 64%
08:00 +21°C° 0 mm 0 mps 746 mmHg 58%
09:00 +24°C° 0 mm 1 mps 746 mmHg 54%
10:00 +25°C° 0 mm 1 mps 746 mmHg 49%
11:00 +26°C° 0 mm 1 mps 746 mmHg 45%
12:00 +27°C° 0 mm 1 mps 745 mmHg 43%
13:00 +27°C° 0 mm 2 mps 745 mmHg 42%
14:00 +28°C° 0 mm 2 mps 745 mmHg 41%
15:00 +27°C° 0 mm 2 mps 745 mmHg 44%
16:00 +27°C° 0 mm 2 mps 744 mmHg 48%
17:00 +26°C° 0 mm 1 mps 744 mmHg 52%
18:00 +25°C° 0 mm 2 mps 744 mmHg 53%
19:00 +24°C° 0 mm 2 mps 744 mmHg 54%
20:00 +23°C° 0 mm 2 mps 744 mmHg 55%
21:00 +21°C° 0.1 mm 3 mps 744 mmHg 58%
22:00 +21°C° 0.1 mm 3 mps 744 mmHg 60%
23:00 +20°C° 0.1 mm 3 mps 744 mmHg 63%

Tomorrow, 5 August, Thursday

Time Temperature Precipitation Wind Pressure Humidity
00:00 +19°C° 0.1 mm 3 mps 743 mmHg 67%
01:00 +19°C° 0.1 mm 3 mps 743 mmHg 72%
02:00 +18°C° 0.1 mm 3 mps 743 mmHg 77%
03:00 +18°C° 0.1 mm 2 mps 743 mmHg 78%
04:00 +18°C° 0.1 mm 2 mps 743 mmHg 80%
05:00 +18°C° 0.1 mm 2 mps 742 mmHg 81%
06:00 +19°C° 0.2 mm 2 mps 742 mmHg 79%
07:00 +20°C° 0.2 mm 2 mps 742 mmHg 77%
08:00 +21°C° 0.2 mm 2 mps 742 mmHg 74%
09:00 +24°C° 0.1 mm 3 mps 742 mmHg 68%
10:00 +25°C° 0.1 mm 4 mps 742 mmHg 61%
11:00 +27°C° 0.1 mm 5 mps 742 mmHg 55%
12:00 +28°C° 0 mm 6 mps 741 mmHg 50%
13:00 +29°C° 0 mm 6 mps 741 mmHg 46%
14:00 +32°C° 0 mm 6 mps 740 mmHg 41%
15:00 +32°C° 0 mm 6 mps 740 mmHg 44%
16:00 +30°C° 0 mm 5 mps 739 mmHg 47%
17:00 +30°C° 0 mm 4 mps 739 mmHg 50%
18:00 +28°C° 0 mm 4 mps 738 mmHg 52%
19:00 +27°C° 0 mm 5 mps 738 mmHg 55%
20:00 +26°C° 0 mm 5 mps 738 mmHg 58%
21:00 +25°C° 0.4 mm 5 mps 738 mmHg 65%
22:00 +23°C° 0.4 mm 5 mps 739 mmHg 72%
23:00 +22°C° 0.4 mm 5 mps 740 mmHg 78%

Day after tomorrow, 6 August, Friday

Time Temperature Precipitation Wind Pressure Humidity
00:00 +22°C° 0.6 mm 6 mps 739 mmHg 80%
01:00 +21°C° 0.6 mm 7 mps 738 mmHg 81%
02:00 +21°C° 0.6 mm 8 mps 737 mmHg 83%
03:00 +21°C° 2.1 mm 7 mps 737 mmHg 86%
04:00 +21°C° 2.1 mm 6 mps 737 mmHg 88%
05:00 +21°C° 2.1 mm 5 mps 737 mmHg 91%
06:00 +22°C° 0 mm 6 mps 737 mmHg 85%
07:00 +23°C° 0 mm 6 mps 736 mmHg 80%
08:00 +24°C° 0 mm 6 mps 736 mmHg 74%
09:00 +26°C° 0 mm 6 mps 737 mmHg 66%
10:00 +28°C° 0 mm 7 mps 737 mmHg 59%
11:00 +29°C° 0 mm 7 mps 737 mmHg 52%
12:00 +29°C° 0.1 mm 6 mps 737 mmHg 52%
13:00 +30°C° 0.1 mm 6 mps 737 mmHg 53%
14:00 +30°C° 0.1 mm 6 mps 736 mmHg 53%
15:00 +28°C° 0.6 mm 5 mps 736 mmHg 61%
16:00 +26°C° 0.6 mm 4 mps 736 mmHg 69%
17:00 +24°C° 0.6 mm 3 mps 736 mmHg 77%
18:00 +24°C° 1 mm 3 mps 736 mmHg 82%
19:00 +22°C° 1 mm 3 mps 736 mmHg 86%
20:00 +21°C° 1 mm 3 mps 736 mmHg 90%
21:00 +21°C° 0.7 mm 2 mps 736 mmHg 89%
22:00 +21°C° 0.7 mm 2 mps 736 mmHg 88%
23:00 +22°C° 0.7 mm 1 mps 736 mmHg 87%

7 August, Saturday

Time Temperature Precipitation Wind Pressure Humidity
00:00 +22°C° 0.3 mm 1 mps 736 mmHg 89%
01:00 +21°C° 0.3 mm 1 mps 736 mmHg 91%
02:00 +19°C° 0.3 mm 2 mps 736 mmHg 93%
03:00 +19°C° 0.2 mm 2 mps 736 mmHg 94%
04:00 +19°C° 0.2 mm 2 mps 736 mmHg 94%
05:00 +18°C° 0.2 mm 2 mps 736 mmHg 95%
06:00 +20°C° 0 mm 3 mps 737 mmHg 90%
07:00 +21°C° 0 mm 3 mps 737 mmHg 86%
08:00 +22°C° 0 mm 4 mps 737 mmHg 81%
09:00 +23°C° 0 mm 4 mps 737 mmHg 76%
10:00 +25°C° 0 mm 4 mps 738 mmHg 71%
11:00 +27°C° 0 mm 4 mps 738 mmHg 66%
12:00 +26°C° 0 mm 5 mps 738 mmHg 67%
13:00 +26°C° 0 mm 5 mps 738 mmHg 69%
14:00 +25°C° 0 mm 5 mps 739 mmHg 70%
15:00 +25°C° 0 mm 5 mps 739 mmHg 70%
16:00 +25°C° 0 mm 5 mps 739 mmHg 71%
17:00 +23°C° 0 mm 5 mps 739 mmHg 72%
18:00 +22°C° 0 mm 5 mps 739 mmHg 72%
19:00 +21°C° 0 mm 4 mps 740 mmHg 73%
20:00 +21°C° 0 mm 4 mps 740 mmHg 74%
21:00 +20°C° 0 mm 3 mps 740 mmHg 77%
22:00 +19°C° 0 mm 3 mps 740 mmHg 79%
23:00 +18°C° 0 mm 3 mps 741 mmHg 81%

8 August, Sunday

Time Temperature Precipitation Wind Pressure Humidity
00:00 +18°C° 0 mm 3 mps 741 mmHg 83%
01:00 +17°C° 0 mm 3 mps 741 mmHg 85%
02:00 +16°C° 0 mm 3 mps 741 mmHg 87%
03:00 +16°C° 0 mm 3 mps 742 mmHg 88%
04:00 +14°C° 0 mm 3 mps 742 mmHg 89%
05:00 +14°C° 0 mm 3 mps 742 mmHg 91%
06:00 +17°C° 0 mm 3 mps 742 mmHg 84%
07:00 +19°C° 0 mm 4 mps 743 mmHg 78%
08:00 +20°C° 0 mm 4 mps 743 mmHg 71%
09:00 +22°C° 0 mm 4 mps 743 mmHg 66%
10:00 +23°C° 0 mm 4 mps 743 mmHg 61%
11:00 +25°C° 0 mm 4 mps 743 mmHg 56%
12:00 +26°C° 0 mm 4 mps 743 mmHg 54%
13:00 +27°C° 0 mm 3 mps 744 mmHg 52%
14:00 +27°C° 0 mm 3 mps 744 mmHg 50%
15:00 +27°C° 0 mm 3 mps 744 mmHg 51%
16:00 +27°C° 0 mm 3 mps 744 mmHg 52%
17:00 +27°C° 0 mm 3 mps 744 mmHg 54%
18:00 +25°C° 0 mm 2 mps 744 mmHg 59%
19:00 +24°C° 0 mm 2 mps 745 mmHg 64%
20:00 +22°C° 0 mm 1 mps 745 mmHg 68%
21:00 +22°C° 0 mm 1 mps 745 mmHg 70%
22:00 +21°C° 0 mm 1 mps 745 mmHg 71%
23:00 +21°C° 0 mm 1 mps 745 mmHg 72%

9 August, Monday

Time Temperature Precipitation Wind Pressure Humidity
00:00 +20°C° 0 mm 1 mps 745 mmHg 72%
01:00 +20°C° 0 mm 1 mps 746 mmHg 73%
02:00 +20°C° 0 mm 1 mps 746 mmHg 73%
03:00 +19°C° 0 mm 1 mps 746 mmHg 74%
04:00 +19°C° 0 mm 1 mps 746 mmHg 75%
05:00 +19°C° 0 mm 1 mps 745 mmHg 75%
06:00 +21°C° 0 mm 1 mps 746 mmHg 70%
07:00 +23°C° 0 mm 1 mps 746 mmHg 65%
08:00 +24°C° 0 mm 1 mps 746 mmHg 60%
09:00 +26°C° 0 mm 1 mps 746 mmHg 55%
10:00 +27°C° 0 mm 1 mps 746 mmHg 50%
11:00 +28°C° 0 mm 2 mps 746 mmHg 45%
12:00 +29°C° 0 mm 2 mps 746 mmHg 43%
13:00 +30°C° 0 mm 2 mps 746 mmHg 41%
14:00 +30°C° 0 mm 2 mps 746 mmHg 39%
15:00 +30°C° 0 mm 2 mps 746 mmHg 41%
16:00 +30°C° 0 mm 2 mps 745 mmHg 44%
17:00 +30°C° 0 mm 1 mps 745 mmHg 46%
18:00 +28°C° 0.1 mm 1 mps 745 mmHg 51%
19:00 +27°C° 0.1 mm 1 mps 745 mmHg 55%
20:00 +25°C° 0.1 mm 1 mps 745 mmHg 60%
21:00 +24°C° 0.2 mm 1 mps 745 mmHg 65%
22:00 +23°C° 0.2 mm 1 mps 745 mmHg 70%
23:00 +23°C° 0.2 mm 2 mps 745 mmHg 74%
Show more